This demonstration page uses our WeatherBlox Daily Observations layout. Learn more.

Left ArrowRight Arrow

30.21309, -93.2044

Hourly Observations for October 19, 2015

Temp ( °F °C ) Dew Point ( °F °C ) Humidity (%) Winds ( mph kmh ) Pressure ( in mb ) Visibility ( mi km ) Precip ( " mm )
12:15 am 00:15 Clear 60 15.3 36 2.4 42 42 NE 6 9 30.27 1025 10 16 0.00 0.00
12:35 am 00:35 Clear 59 15 37 2.5 43 43 NE 7 11 30.27 1025 10 16 0.00 0.00
12:55 am 00:55 Clear 58 14.5 37 2.7 45 45 NE 7 11 30.27 1025 10 16 0.00 0.00
1:15 am 01:15 Clear 57 14.1 37 2.7 46 46 NE 6 9 30.27 1025 10 16 0.00 0.00
1:35 am 01:35 Clear 58 14.2 37 2.5 45 45 NE 7 11 30.27 1025 10 16 0.00 0.00
1:55 am 01:55 Clear 57 14 37 2.6 46 46 NE 7 11 30.27 1025 10 16 0.00 0.00
2:15 am 02:15 Clear 56 13.4 38 3.1 50 50 NE 7 11 30.27 1025 10 16 0.00 0.00
2:35 am 02:35 Clear 55 12.8 38 3.2 52 52 NE 8 13 30.27 1025 10 16 0.00 0.00
2:55 am 02:55 Clear 55 12.8 38 3.3 53 53 NE 6 9 30.27 1025 10 16 0.00 0.00
3:15 am 03:15 Clear 54 12.2 38 3.5 56 56 NE 5 7 30.27 1025 10 16 0.00 0.00
3:35 am 03:35 Clear 53 11.7 39 3.7 58 58 NE 3 6 30.27 1025 10 16 0.00 0.00
3:55 am 03:55 Clear 53 11.5 39 3.8 59 59 NE 3 6 30.27 1025 10 16 0.00 0.00
4:15 am 04:15 Clear 53 11.5 38 3.6 59 59 NE 5 7 30.27 1025 10 16 0.00 0.00
4:35 am 04:35 Clear 52 11.1 38 3.6 60 60 NE 3 6 30.27 1025 10 16 0.00 0.00
4:55 am 04:55 Clear 51 10.8 38 3.6 61 61 NE 5 7 30.27 1025 10 16 0.00 0.00
5:15 am 05:15 Clear 51 10.6 38 3.5 62 62 NE 5 7 30.27 1025 10 16 0.00 0.00
6:00 am 06:00 Mostly Clear 52 11 37 3 58 58 NE 8 13 30.27 1025 10 16 0.00 0.00
6:50 am 06:50 Mostly Clear 52 11 37 3 58 58 NE 8 13 30.27 1025 10 16 0.00 0.00
7:55 am 07:55 Mostly Sunny 55 13 37 3 51 51 ENE 7 11 30.27 1025 10 16 0.00 0.00
8:45 am 08:45 Mostly Sunny 57 14 37 3 48 48 NE 13 20 30.27 1025 10 16 0.00 0.00
9:50 am 09:50 Mostly Sunny 64 18 41 5 43 43 ENE 8 13 30.30 1026 10 16 0.00 0.00
10:45 am 10:45 Mostly Sunny 70 21 43 6 38 38 ENE 8 13 30.30 1026 10 16 0.00 0.00
11:45 am 11:45 Mostly Sunny 73 23 46 8 38 38 ENE 6 9 30.27 1025 10 16 0.00 0.00
12:55 pm 12:55 Mostly Sunny 77 25 52 11 42 42 E 8 13 30.24 1024 10 16 0.00 0.00
1:55 pm 13:55 Mostly Sunny 79 26 52 11 39 39 E 8 13 30.21 1023 10 16 0.00 0.00
2:50 pm 14:50 Mostly Sunny 79 26 50 10 37 37 SSE 3 6 30.18 1022 10 16 0.00 0.00
3:50 pm 15:50 Mostly Sunny 81 27 50 10 34 34 ESE 3 6 30.18 1022 10 16 0.00 0.00
4:50 pm 16:50 Mostly Sunny 79 26 50 10 37 37 E 6 9 30.15 1021 10 16 0.00 0.00
5:50 pm 17:50 Mostly Sunny 77 25 52 11 42 42 E 5 7 30.15 1021 10 16 0.00 0.00
6:50 pm 18:50 Mostly Clear 68 20 54 12 60 60 SSE 5 7 30.15 1021 10 16 0.00 0.00
7:50 pm 19:50 Mostly Clear 64 18 55 13 73 73 Calm 30.18 1022 10 16 0.00 0.00
8:50 pm 20:50 Mostly Clear 61 16 55 13 83 83 ESE 3 6 30.18 1022 10 16 0.00 0.00
9:50 pm 21:50 Mostly Clear 63 17 57 14 83 83 Calm 30.18 1022 10 16 0.00 0.00
10:15 pm 22:15 Clear 62 16.8 58 14.5 86 86 Calm 30.21 1023 10 16 0.00 0.00
10:35 pm 22:35 Clear 62 16.9 58 14.7 87 87 E 5 7 30.21 1023 10 16 0.00 0.00
10:55 pm 22:55 Clear 62 16.5 59 14.9 90 90 Calm 30.21 1023 10 16 0.00 0.00
11:15 pm 23:15 Clear 62 16.5 59 15.1 92 92 E 3 6 30.21 1023 10 16 0.00 0.00
11:35 pm 23:35 Clear 62 16.8 59 15.1 90 90 E 5 7 30.21 1023 10 16 0.00 0.00
11:55 pm 23:55 Clear 62 16.5 59 14.9 90 90 E 3 6 30.18 1022 10 16 0.00 0.00

Powered by AerisWeather